Location: Newark
(40.9833°N, 0.0333°W)
Time: 02:29:07
(UTC+00:00)

deb Explorer IX - Pass Details

Date: 31 October 2020
Orbit: 537 x 1105 km, 38.8° (Epoch: 02 December)

Event Time Altitude Azimuth Distance (km) Brightness Sun altitude
Rises 11:08:19 0° 271° (W) 3,833 ? 34.1°
Reaches altitude 10° 11:13:04 10° 243° (WSW) 2,936 ? 34.2°
Maximum altitude 11:15:38 12° 222° (SW) 2,792 ? 34.3°
Drops below altitude 10° 11:18:13 10° 201° (SSW) 2,952 ? 34.4°
Sets 11:23:04 0° 173° (S) 3,879 ? 34.5°
